This is the latest recevied weather packets stored in our database for station/object K0APR. If no packets are shown the sender has not sent any weather packets the latest 10 day(s).
| Time | Temp. | Humidity | Pressure | Rain* | Wind** | Luminosity | Snow |
|---|---|---|---|---|---|---|---|
| 1777853557 | 22.22° C | 27% | 1005.6 hPa | 0 mm | - | 76 W/m² | - |
| 1777853254 | 22.22° C | 27% | 1005.2 hPa | 0 mm | - | 90 W/m² | - |
| 1777852951 | 22.22° C | 27% | 1005.6 hPa | 0 mm | - | 98 W/m² | - |
| 1777852649 | 22.22° C | 27% | 1005.6 hPa | 0 mm | - | 103 W/m² | - |
| 1777852346 | 22.22° C | 26% | 1005.6 hPa | 0 mm | - | 115 W/m² | - |
| 1777852044 | 22.22° C | 26% | 1005.6 hPa | 0 mm | - | 123 W/m² | - |
| 1777851742 | 22.22° C | 27% | 1005.6 hPa | 0 mm | - | 146 W/m² | - |
| 1777851438 | 22.22° C | 25% | 1006 hPa | 0 mm | - | 154 W/m² | - |
| 1777851134 | 21.67° C | 26% | 1005.6 hPa | 0 mm | - | 167 W/m² | - |
| 1777850831 | 21.67° C | 26% | 1006 hPa | 0 mm | - | 183 W/m² | - |
| 1777850528 | 21.67° C | 25% | 1006 hPa | 0 mm | - | 194 W/m² | - |
| 1777850227 | 22.22° C | 28% | 1006 hPa | 0 mm | - | 209 W/m² | - |
| 1777849923 | 22.22° C | 25% | 1006.4 hPa | 0 mm | - | 236 W/m² | - |
| 1777849619 | 22.22° C | 25% | 1006.4 hPa | 0 mm | - | 242 W/m² | - |
| 1777849316 | 22.22° C | 26% | 1006 hPa | 0 mm | - | 261 W/m² | - |
| 1777849014 | 22.22° C | 28% | 1006.4 hPa | 0 mm | - | 258 W/m² | - |
| 1777848714 | 22.22° C | 28% | 1006.4 hPa | 0 mm | - | 281 W/m² | - |
| 1777848411 | 22.22° C | 28% | 1006.4 hPa | 0 mm | - | 284 W/m² | - |
| 1777848109 | 21.67° C | 29% | 1006.4 hPa | 0 mm | - | 312 W/m² | - |
| 1777847807 | 21.67° C | 30% | 1006.4 hPa | 0 mm | - | 313 W/m² | - |
| 1777847503 | 22.22° C | 30% | 1006.4 hPa | 0 mm | - | 316 W/m² | - |
| 1777847200 | 21.67° C | 29% | 1006.4 hPa | 0 mm | - | 351 W/m² | - |
| 1777846898 | 21.67° C | 28% | 1006.7 hPa | 0 mm | - | 357 W/m² | - |
| 1777846596 | 22.22° C | 28% | 1006.4 hPa | 0 mm | - | 367 W/m² | - |
| 1777846293 | 21.67° C | 29% | 1006.4 hPa | 0 mm | - | 393 W/m² | - |
* Rain latest hour (hover to see other rain measurements)
** Current wind speed in m/s (hover to see current wind gust speed)